Weather History for Miami, FL

Change the Weather History Date:

Friday, May 2, 2014

  Actual Average Record
Temperature  
Mean Temperature 83 °F 78 °F  
Max Temperature 89 °F 85 °F 93 °F (1937)
Min Temperature 77 °F 71 °F 58 °F (1940)
Degree Days  
Heating Degree Days 0 0  
Month to date heating degree days 0 0  
Since 1 July heating degree days 61 128  
Cooling Degree Days 18 13  
Month to date cooling degree days 36 26  
Year to date cooling degree days 1117 919  
Growing Degree Days 33 (Base 50)    
Moisture  
Dew Point 69 °F    
Average Humidity 65    
Maximum Humidity 79    
Minimum Humidity 51    
Precipitation  
Precipitation 0.00 in 0.10 in 3.18 in (1947)
Month to date precipitation 0.00 0.20  
Year to date precipitation 6.86 10.21  
Snow  
Snow 0.00 in - - ()
Month to date snowfall 0.0  
Since 1 July snowfall 0.0  
Snow Depth 0.00 in    
Sea Level Pressure  
Sea Level Pressure 29.95 in    
Wind  
Wind Speed 10 mph (SSE)    
Max Wind Speed 20 mph    
Max Gust Speed 27 mph    
Visibility 10 miles    
Events      
T = Trace of Precipitation, MM = Missing Value Source: NWS Daily Summary

Daily Weather History Graph

Daily Weather History Graph

Search for Another Location

Airport:

Trip Planner

Search our weather history database for the weather conditions in past years. The results will help you decide how hot, cold, wet, or windy it might be!

Date:

Astronomy

May. 02, 2014 Rise Set
Actual Time 6:43 AM EDT 7:53 PM EDT
Civil Twilight 6:19 AM EDT 8:17 PM EDT
Nautical Twilight 5:50 AM EDT 8:46 PM EDT
Astronomical Twilight 5:21 AM EDT 9:15 PM EDT
Moon 9:25 AM EDT (5/2) 11:08 PM EDT (5/2)
Length of Visible Light 13h 57m
Length of Day
13h 09m
Waxing Crescent, 12% of the Moon is Illuminated
May 2
Waxing Crescent
May 6
First Quarter
May 14
Full
May 21
Last Quarter
May 28
New

Hourly Weather History & Observations

Time (EDT) Temp. Heat Index Dew Point Humidity Pressure Visibility Wind Dir Wind Speed Gust Speed Precip Events Conditions
12:53 AM 79.0 °F - 71.1 °F 77% 30.00 in 10.0 mi SE 4.6 mph - N/A   Mostly Cloudy
1:53 AM 79.0 °F - 71.1 °F 77% 29.99 in 10.0 mi SE 5.8 mph - N/A   Clear
2:53 AM 78.1 °F - 71.1 °F 79% 29.98 in 10.0 mi SE 4.6 mph - N/A   Clear
3:53 AM 78.1 °F - 71.1 °F 79% 29.97 in 10.0 mi SE 5.8 mph - N/A   Scattered Clouds
4:53 AM 78.1 °F - 70.0 °F 76% 29.96 in 10.0 mi SE 4.6 mph - N/A   Mostly Cloudy
5:53 AM 78.1 °F - 70.0 °F 76% 29.96 in 10.0 mi SE 6.9 mph - N/A   Mostly Cloudy
6:45 AM 79.0 °F - 71.1 °F 77% 29.94 in 10.0 mi SE 10.4 mph - N/A   Overcast
6:53 AM 79.0 °F - 71.1 °F 77% 29.95 in 10.0 mi SE 9.2 mph 17.3 mph N/A   Overcast
7:05 AM 80.1 °F 83.2 °F 70.0 °F 71% 29.95 in 10.0 mi SSE 11.5 mph - N/A   Overcast
7:53 AM 80.1 °F 83.2 °F 70.0 °F 71% 29.95 in 10.0 mi SSE 9.2 mph 20.7 mph N/A   Overcast
8:53 AM 82.0 °F 85.9 °F 70.0 °F 67% 29.94 in 10.0 mi SSE 15.0 mph 19.6 mph N/A   Mostly Cloudy
9:53 AM 84.0 °F 87.8 °F 69.1 °F 61% 29.94 in 10.0 mi South 15.0 mph 21.9 mph N/A   Mostly Cloudy
10:53 AM 84.0 °F 87.0 °F 68.0 °F 58% 29.96 in 10.0 mi South 15.0 mph 21.9 mph N/A   Overcast
11:53 AM 84.9 °F 88.8 °F 69.1 °F 59% 29.97 in 10.0 mi South 15.0 mph 20.7 mph N/A   Overcast
12:53 PM 84.9 °F 88.8 °F 69.1 °F 59% 29.96 in 10.0 mi SSE 10.4 mph 20.7 mph N/A   Scattered Clouds
1:53 PM 87.1 °F 92.0 °F 70.0 °F 57% 29.94 in 10.0 mi SSE 10.4 mph - N/A   Mostly Cloudy
2:53 PM 88.0 °F 92.9 °F 70.0 °F 55% 29.91 in 10.0 mi South 15.0 mph 24.2 mph N/A   Mostly Cloudy
3:53 PM 87.1 °F 91.3 °F 69.1 °F 55% 29.90 in 10.0 mi SSE 12.7 mph 23.0 mph N/A   Mostly Cloudy
4:53 PM 88.0 °F 92.1 °F 69.1 °F 53% 29.89 in 10.0 mi South 15.0 mph 20.7 mph N/A   Mostly Cloudy
5:53 PM 86.0 °F 88.8 °F 66.9 °F 53% 29.90 in 10.0 mi SSE 10.4 mph 23.0 mph N/A   Overcast
6:53 PM 84.0 °F 87.0 °F 68.0 °F 58% 29.90 in 10.0 mi SSE 12.7 mph - N/A   Mostly Cloudy
7:53 PM 82.0 °F 84.9 °F 68.0 °F 62% 29.92 in 10.0 mi South 8.1 mph - N/A   Scattered Clouds
8:53 PM 81.0 °F 83.8 °F 68.0 °F 65% 29.93 in 10.0 mi SSE 4.6 mph - N/A   Partly Cloudy
9:53 PM 80.1 °F 82.3 °F 66.9 °F 64% 29.95 in 10.0 mi SW 4.6 mph - N/A   Clear
10:53 PM 80.1 °F 82.9 °F 69.1 °F 69% 29.97 in 10.0 mi WSW 6.9 mph - N/A   Partly Cloudy
11:53 PM 80.1 °F 82.9 °F 69.1 °F 69% 29.98 in 10.0 mi WNW 4.6 mph - N/A   Mostly Cloudy